Find Starlink 32405

NORAD ID: 61636 Int'l Des: 2024-191 Owner: SPXS Country: US Constellation: starlink operational
LEOCIRCULAR

当前视图

正在加载3D地球...

About Starlink 32405

Starlink 32405 (NORAD 61636) is a starlink constellation satellite (v2 mini) launched Oct 23, 2024 by SPXS of US. It operates in LEO, CIRCULAR orbit with a mass of 730.00 kg.

即将过境

Passes for default location (London). Set your location on the main map for personalized predictions.

高度历史

Loading altitude history...

两行轨道根数

1 61636U 24191R 26264.00952400 -.00000610 00000-0 -12636-4 0 9990
2 61636 43.0035 135.2786 0000789 344.3241 15.7586 15.27570922107365
Epoch: Sep 21, 2026 • Age: 21 hours

当前状态

高度 485.8 km
远地点 / 近地点 N/A
速度 7.62 km/s
星下点 -12.68°S, 0.97°E
发射日期 Oct 23, 2024
运行时间 1.9 years
类型 internet

技术详情

分类 Payload
质量 730.00 kg
干质量 700.00 kg
长度 0.30 m
跨度 29.00 m
形状 ? Box + pan
制造商 SPXS
平台类型 Starlink V2M
阶段状态 In Orbit
所有者/国家 SPXS/US

Most Searched